Location: Madrid
(40.4000°N, 3.6830°W)
Time: 04:25:43
(UTC+01:00)

ISS - Pass Details

Date: 12 November 2019
Orbit: 412 x 421 km, 51.6° (Epoch: 12 November)

Event Time Altitude Azimuth Distance (km) Brightness Sun altitude
Exits shadow 06:34:31 38° 271° (W) 656 -3.3 -15.8°
Maximum altitude 06:35:25 51° 222° (SW) 532 -3.5 -15.7°
Drops below altitude 10° 06:38:41 10° 145° (SE) 1,491 -0.3 -15.1°
Sets 06:40:48 0° 140° (SE) 2,349 0.9 -14.7°
